Location: Newark
(55.5030°N, 22.7200°E)
Time: 15:31:16
(UTC+00:00)

SR - Visible Passes

Search period start: 17 May 2021 00:00
Search period end: 27 May 2021 00:00
Orbit: 573 x 882 km, 66.7° (Epoch: 16 May)

Date Brightness Start Highest point End Pass type
(mag) Time Alt. Az. Time Alt. Az. Time Alt. Az.
17 May ? 01:14:36 10° WSW 01:20:24 53° NW 01:26:11 10° NE visible
17 May ? 22:45:22 20° SSE 22:48:34 34° ESE 22:53:50 10° NE visible
18 May ? 00:24:45 11° SW 00:30:24 74° NW 00:36:20 10° NE visible
18 May ? 21:56:34 16° SE 21:59:10 21° ESE 22:03:28 10° ENE visible
18 May ? 23:35:56 17° SSW 23:40:32 78° SE 23:46:28 10° NE visible
19 May ? 01:17:33 10° W 01:23:09 41° NNW 01:28:43 10° NE visible
19 May ? 21:07:42 10° ESE 21:09:56 12° ESE 21:12:10 10° E visible
19 May ? 22:47:04 21° S 22:50:49 51° ESE 22:56:32 10° NE visible
20 May ? 00:27:12 10° WSW 00:33:02 54° NW 00:38:49 10° NE visible
20 May ? 21:58:09 20° SSE 22:01:16 32° ESE 22:06:27 10° NE visible
20 May ? 23:37:30 12° SW 23:43:02 76° NW 23:48:58 10° NE visible
21 May ? 21:09:09 15° SE 21:11:52 20° ESE 21:16:02 10° ENE visible
21 May ? 22:48:30 17° SSW 22:53:11 75° SE 22:59:06 10° NE visible
22 May ? 00:30:08 10° W 00:35:47 42° NNW 00:41:20 10° NE visible
22 May ? 20:20:48 10° ESE 20:22:39 11° E 20:24:30 10° E visible
22 May ? 21:59:25 19° S 22:03:29 48° ESE 22:09:10 10° NE visible
22 May ? 23:39:49 10° WSW 23:45:40 56° NW 23:51:27 10° NE visible
23 May ? 21:10:15 16° SSE 21:13:57 31° ESE 21:19:03 10° NE visible
23 May ? 22:49:44 10° SW 22:55:41 79° NW 23:01:37 10° NE visible
24 May ? 00:33:12 10° W 00:38:37 35° NNW 00:43:54 10° NE visible
24 May ? 20:20:58 11° SSE 20:24:34 19° ESE 20:28:35 10° ENE visible
24 May ? 22:00:18 12° SSW 22:05:51 72° SE 22:11:44 10° NE visible
24 May ? 23:42:43 10° WSW 23:48:24 43° NNW 23:53:58 10° NE visible
25 May ? 21:10:52 12° S 21:16:10 46° ESE 21:21:47 10° NE visible
25 May ? 22:52:26 10° WSW 22:58:18 58° NW 23:04:05 10° NE visible
26 May ? 00:36:20 10° WNW 00:41:31 30° NNW 00:46:33 10° NE visible
26 May ? 20:21:39 10° S 20:26:39 29° ESE 20:31:39 10° NE visible
26 May ? 22:02:22 10° SW 22:08:20 82° NW 22:14:15 10° NE visible
26 May ? 23:45:47 10° W 23:51:13 35° NNW 23:56:31 10° NE visible
